[[{"header":{"parameterUnit":"m.s-1","parameterCategory":1,"la1":30.2991,"la2":30.254,"lo1":-89.0895,"lo2":-89.0444,"dy":0.0017,"dx":0.0017,"nx":28,"ny":28,"refTime":"2024-05-27T09:00:00:Z","depth":0,"parameterNumber":2,"parameterNumberName":"U-component_of_WINDS"},"data":[0,0,0,0,0,0,0,0,0,0,0,0,0,0,0,0,0,0,0,0,0,0,0,0,0,0,0,0,0,0,0,0,0,0,0,0,0,0,0,0,0,0,0,0,0,0,0,0,0,0,0,0,0,0,0,0,0,0,-2.5434,-2.5433,0,-2.5338,-2.5337,-2.5336,-2.5352,-2.5354,-2.5356,-2.5357,-2.5253,-2.5249,-2.5245,0,0,0,0,0,0,0,0,0,0,0,0,0,-2.5629,-2.5626,-2.5434,-2.5433,-2.5432,-2.5338,-2.5337,-2.5335,-2.5352,-2.5354,-2.5356,-2.5358,-2.5255,-2.525,-2.5244,0,0,0,0,0,0,0,0,0,0,0,0,0,-2.554,-2.5625,-2.5434,-2.5429,-2.5427,-2.5338,-2.5337,-2.5335,-2.5351,-2.5354,-2.5357,-2.5359,-2.5256,-2.525,-2.5244,-2.5152,0,0,-2.5224,-2.5221,0,0,0,0,0,0,0,0,-2.5545,-2.5533,-2.5431,-2.5429,-2.5427,-2.536,-2.5368,-2.5274,-2.5351,-2.538,-2.5357,-2.536,-2.5286,-2.5277,-2.5254,-2.5148,-2.5143,-2.5223,-2.5219,-2.5216,-2.5215,0,0,0,0,0,0,0,-2.5551,-2.5537,-2.5396,-2.5429,-2.5427,-2.543,-2.542,-2.535,-2.532,-2.5378,-2.5379,-2.5367,-2.5286,-2.526,-2.5251,-2.5142,-2.5223,-2.5218,-2.5214,-2.5211,-2.4959,-2.4957,0,0,0,0,0,0,-2.556,-2.5542,-2.5399,-2.5393,-2.5494,-2.5425,-2.5414,-2.5379,-2.5321,-2.5314,-2.5365,-2.5369,-2.527,-2.5259,-2.5248,-2.5138,-2.5216,-2.521,-2.5207,-2.4962,-2.4959,-2.4956,0,0,0,0,0,0,-2.5564,-2.5547,-2.5403,-2.5468,-2.545,-2.5419,-2.5379,-2.5375,-2.535,-2.5312,-2.5306,-2.5345,-2.5271,-2.5257,-2.5177,-2.5135,-2.5207,-2.5201,-2.4965,-2.4961,-2.4957,-2.4918,0,0,0,0,0,0,-2.5569,-2.5548,-2.5513,-2.5467,-2.5446,-2.5334,-2.5377,-2.5372,-2.5339,-2.5342,-2.529,-2.5284,-2.5272,-2.5187,-2.5171,-2.5127,-2.5196,-2.4969,-2.4963,-2.4958,-2.4922,-2.4913,-2.4904,0,0,0,0,0,-2.5576,-2.5504,-2.5511,-2.5494,-2.5402,-2.5331,-2.5319,-2.5309,-2.5336,-2.53,-2.5277,-2.5286,-2.5143,-2.5179,-2.516,-2.5114,-2.4971,-2.4965,-2.4959,-2.4927,-2.4915,-2.4904,0,0,0,0,0,0,-2.5542,-2.5497,-2.5505,-2.5416,-2.5378,-2.5334,-2.5288,-2.5296,-2.5247,-2.5252,-2.524,-2.5228,-2.5147,-2.5123,-2.5164,-2.5025,-2.5061,-2.5051,-2.5043,-2.5031,-2.5022,-2.5028,-2.5191,0,0,0,0,0,-2.5525,-2.5473,-2.5436,-2.5361,-2.5342,-2.5319,-2.5287,-2.5283,-2.5242,-2.5225,-2.5196,-2.5155,-2.5101,-2.5065,-2.5013,-2.4921,-2.491,-2.4881,-2.4872,-2.4864,-2.4854,-2.4806,-2.4792,-2.4935,-2.4935,-2.4935,0,0,-2.5487,-2.5456,-2.5423,-2.5353,-2.5323,-2.5268,-2.5305,-2.5244,-2.5204,-2.5216,-2.5139,-2.5117,-2.507,-2.4984,-2.4945,-2.4961,-2.4814,-2.4856,-2.4851,-2.4845,-2.4798,-2.4784,-2.4772,-2.4931,-2.4932,-2.4932,0,0,-2.539,-2.5362,-2.5297,-2.5268,-2.5223,-2.521,-2.5195,-2.5151,-2.5137,-2.5061,-2.507,-2.5022,-2.4929,-2.4896,-2.4867,-2.4765,-2.4772,-2.4749,-2.4699,-2.4652,-2.4641,-2.463,-2.4594,-2.4581,-2.474,-2.474,-2.474,0,-2.5348,-2.5267,-2.5262,-2.5202,-2.5172,-2.5185,-2.5119,-2.509,-2.503,-2.5009,-2.503,-2.4916,-2.4886,-2.4793,-2.4769,-2.4745,-2.4727,-2.4752,-2.4643,-2.4633,-2.4623,-2.4588,-2.4574,-2.4737,-2.4737,-2.4738,-2.4738,0,-2.5217,-2.5162,-2.5115,-2.506,-2.5024,-2.4962,-2.4948,-2.4912,-2.4913,-2.4898,-2.4821,-2.4787,-2.4729,-2.4708,-2.4706,-2.4616,-2.4628,-2.4646,-2.4681,-2.4607,-2.4574,-2.456,-2.4733,-2.4734,-2.4735,-2.4736,0,0,-2.5089,-2.5038,-2.502,-2.4997,-2.4952,-2.4908,-2.4848,-2.4795,-2.4765,-2.4725,-2.4673,-2.4598,-2.4616,-2.4584,-2.458,-2.4538,-2.446,-2.4562,-2.4561,-2.4543,-2.4359,-2.4344,-2.4328,-2.4467,-2.4465,-2.4463,-2.4363,0,-2.4987,-2.4881,-2.4878,-2.4781,-2.473,-2.4745,-2.4693,-2.4659,-2.4645,-2.4599,-2.4583,-2.4529,-2.4558,-2.4538,-2.4499,-2.4478,-2.4423,-2.4486,-2.4417,-2.4415,-2.4426,-2.4311,-2.4293,-2.42,-2.435,-2.4348,-2.4346,0,-2.4852,-2.4811,-2.471,-2.4676,-2.4654,-2.4607,-2.456,-2.4517,-2.448,-2.4473,-2.444,-2.4444,-2.4382,-2.4424,-2.4339,-2.4382,-2.4355,-2.4342,-2.4338,-2.4328,-2.4373,-2.4296,-2.417,-2.4156,-2.4325,-2.4327,-2.4329,0,-2.4767,-2.4688,-2.4617,-2.4597,-2.4556,-2.4523,-2.4504,-2.4471,-2.444,-2.4399,-2.438,-2.4332,-2.4304,-2.4267,-2.4258,-2.4289,-2.4174,-2.4214,-2.4165,-2.4165,-2.4136,-2.4137,-2.4002,-2.4123,-2.4124,-2.4124,-2.4124,0,-2.4651,-2.4588,-2.458,-2.4535,-2.4467,-2.4465,-2.4396,-2.438,-2.4352,-2.4305,-2.4316,-2.4272,-2.4264,-2.4218,-2.4212,-2.4143,-2.4131,-2.4123,-2.4121,-2.412,-2.412,-2.4099,-2.4104,-2.412,-2.4121,-2.4122,-2.4122,0,-2.4543,-2.4535,-2.4459,-2.4429,-2.442,-2.437,-2.4344,-2.4302,-2.4292,-2.4233,-2.4219,-2.4202,-2.4149,-2.4139,-2.4075,-2.4071,-2.3989,-2.3995,-2.4001,-2.4001,-2.3952,-2.3956,-2.3795,-2.3774,-2.3912,-2.391,-2.3909,0,-2.4467,-2.442,-2.4386,-2.4357,-2.4338,-2.429,-2.4261,-2.426,-2.4228,-2.4187,-2.415,-2.41,-2.4059,-2.3975,-2.3956,-2.3909,-2.3912,-2.386,-2.3904,-2.3906,-2.3909,-2.3911,-2.3907,-2.3849,-2.3848,-2.3847,-2.3846,0,-2.4334,-2.4334,-2.4292,-2.4249,-2.4215,-2.418,-2.4148,-2.4123,-2.4118,-2.4082,-2.4031,-2.4,-2.3938,-2.3888,-2.3842,-2.3822,-2.3832,-2.3833,-2.3819,-2.3815,-2.382,-2.3816,-2.3975,-2.3835,-2.3836,-2.3837,-2.3837,-2.3838,-2.4238,-2.4198,-2.4169,-2.4123,-2.41,-2.407,-2.4031,-2.4018,-2.3975,-2.3926,-2.3929,-2.3872,-2.3841,-2.3781,-2.376,-2.3715,-2.3731,-2.3711,-2.3705,-2.3699,-2.3694,-2.3831,-2.3707,-2.3707,-2.3708,-2.3708,-2.3708,0,-2.4105,-2.4089,-2.4046,-2.4003,-2.3967,-2.3985,-2.3952,-2.3919,-2.387,-2.3842,-2.3803,-2.3745,-2.3698,-2.3679,-2.3633,-2.3601,-2.3605,-2.3589,-2.3589,-2.3585,-2.3683,-2.3699,-2.3587,-2.3587,-2.3587,-2.3587,-2.3587,-2.3587,-2.403,-2.3963,-2.3961,-2.3883,-2.3868,-2.3814,-2.3793,-2.3767,-2.3745,-2.368,-2.3642,-2.3632,-2.3607,-2.356,-2.3518,-2.3514,-2.3496,-2.3477,-2.3474,-2.3565,-2.3577,-2.3589,-2.3604,-2.3473,-2.3473,-2.3379,-2.3379,-2.3378]},{"header":{"parameterUnit":"m.s-1","parameterCategory":1,"la1":30.2991,"la2":30.254,"lo1":-89.0895,"lo2":-89.0444,"dy":0.0017,"dx":0.0017,"nx":28,"ny":28,"refTime":"2024-05-27T09:00:00:Z","depth":0,"parameterNumber":3,"parameterNumberName":"V-component_of_WINDS"},"data":[0,0,0,0,0,0,0,0,0,0,0,0,0,0,0,0,0,0,0,0,0,0,0,0,0,0,0,0,0,0,0,0,0,0,0,0,0,0,0,0,0,0,0,0,0,0,0,0,0,0,0,0,0,0,0,0,0,0,-0.9886,-0.9886,0,-0.9868,-0.9868,-0.9868,-0.9839,-0.9838,-0.9838,-0.9837,-0.9817,-0.9817,-0.9817,0,0,0,0,0,0,0,0,0,0,0,0,0,-0.9893,-0.9894,-0.9886,-0.9886,-0.9886,-0.9868,-0.9868,-0.9868,-0.9839,-0.9838,-0.9838,-0.9837,-0.9817,-0.9817,-0.9817,0,0,0,0,0,0,0,0,0,0,0,0,0,-0.9884,-0.9894,-0.9886,-0.9869,-0.9867,-0.9868,-0.9868,-0.9868,-0.9839,-0.9838,-0.9837,-0.9837,-0.9817,-0.9817,-0.9817,-0.9833,0,0,-0.9817,-0.9817,0,0,0,0,0,0,0,0,-0.9885,-0.9884,-0.9872,-0.987,-0.9868,-0.9855,-0.9863,-0.9856,-0.9839,-0.985,-0.9837,-0.9836,-0.983,-0.9829,-0.9827,-0.9832,-0.9831,-0.9817,-0.9817,-0.9817,-0.9817,0,0,0,0,0,0,0,-0.9886,-0.9885,-0.9879,-0.9872,-0.987,-0.9862,-0.986,-0.9862,-0.9845,-0.9849,-0.9847,-0.9845,-0.9829,-0.9828,-0.9827,-0.983,-0.9817,-0.9817,-0.9817,-0.9817,-0.9848,-0.9849,0,0,0,0,0,0,-0.9889,-0.9886,-0.9879,-0.9878,-0.9875,-0.9863,-0.986,-0.986,-0.9844,-0.9841,-0.9846,-0.9844,-0.9828,-0.9827,-0.9826,-0.9845,-0.9817,-0.9817,-0.9817,-0.9848,-0.9849,-0.985,0,0,0,0,0,0,-0.9889,-0.9889,-0.988,-0.9881,-0.988,-0.9863,-0.9863,-0.986,-0.9859,-0.9842,-0.9839,-0.9847,-0.9827,-0.9826,-0.9832,-0.9844,-0.9817,-0.9817,-0.9847,-0.9848,-0.9849,-0.9882,0,0,0,0,0,0,-0.989,-0.9889,-0.9895,-0.9882,-0.988,-0.9887,-0.9864,-0.986,-0.9859,-0.9856,-0.9843,-0.984,-0.9827,-0.9832,-0.9832,-0.9843,-0.9817,-0.9845,-0.9847,-0.9849,-0.9879,-0.9884,-0.9888,0,0,0,0,0,-0.989,-0.9904,-0.9895,-0.9895,-0.9887,-0.9887,-0.9886,-0.9871,-0.986,-0.9866,-0.9855,-0.984,-0.9842,-0.9833,-0.9832,-0.9844,-0.9845,-0.9847,-0.9849,-0.9877,-0.9883,-0.9887,0,0,0,0,0,0,-0.9917,-0.9902,-0.9892,-0.9902,-0.9897,-0.9883,-0.9889,-0.9877,-0.9874,-0.9871,-0.9852,-0.985,-0.9858,-0.9851,-0.9841,-0.9859,-0.9841,-0.9843,-0.9863,-0.9868,-0.9872,-0.9874,-0.9816,0,0,0,0,0,-0.9925,-0.9927,-0.9913,-0.9923,-0.9921,-0.9906,-0.9905,-0.9895,-0.9888,-0.9885,-0.9875,-0.9868,-0.9867,-0.9867,-0.9865,-0.9878,-0.9875,-0.9886,-0.989,-0.9893,-0.9895,-0.9903,-0.9908,-0.9856,-0.9856,-0.9856,0,0,-0.994,-0.9932,-0.9934,-0.9929,-0.9923,-0.9926,-0.9904,-0.9907,-0.9909,-0.9885,-0.9891,-0.9883,-0.9874,-0.9884,-0.9888,-0.9879,-0.9909,-0.9896,-0.9899,-0.9899,-0.9906,-0.9911,-0.9915,-0.9858,-0.9857,-0.9857,0,0,-0.9969,-0.9962,-0.9971,-0.9967,-0.9959,-0.9949,-0.9951,-0.9939,-0.9934,-0.9939,-0.9922,-0.9923,-0.9922,-0.9917,-0.9915,-0.9944,-0.9931,-0.9944,-0.9966,-0.9974,-0.9978,-0.9981,-0.9993,-0.9998,-0.9946,-0.9946,-0.9946,0,-0.9989,-0.9993,-0.9977,-0.9983,-0.9981,-0.996,-0.997,-0.9965,-0.9957,-0.9957,-0.9946,-0.9946,-0.9938,-0.9948,-0.9955,-0.9953,-0.9955,-0.9946,-0.9979,-0.9982,-0.9985,-0.9996,-1.0001,-0.9948,-0.9947,-0.9947,-0.9947,0,-1.0018,-1.0021,-1.0029,-1.0023,-1.0023,-1.003,-1.0015,-1.0016,-1.0006,-0.9997,-1.0004,-0.9994,-0.9991,-0.9992,-0.9981,-1.0001,-0.9995,-0.9982,-0.9964,-0.9992,-1.0003,-1.0007,-0.995,-0.995,-0.9949,-0.9949,0,0,-1.0064,-1.005,-1.0054,-1.0052,-1.0042,-1.0044,-1.0051,-1.0049,-1.0051,-1.0046,-1.0052,-1.0052,-1.004,-1.0037,-1.0025,-1.0032,-1.0058,-1.0018,-1.0018,-1.0028,-1.0081,-1.0092,-1.0098,-1.0049,-1.005,-1.005,-1.0083,0,-1.0092,-1.0103,-1.009,-1.0104,-1.0108,-1.0089,-1.0094,-1.0089,-1.0082,-1.0083,-1.0074,-1.0076,-1.0059,-1.0058,-1.0063,-1.0054,-1.0069,-1.0051,-1.0055,-1.0055,-1.0059,-1.0103,-1.0114,-1.0145,-1.0086,-1.0087,-1.0087,0,-1.0126,-1.0125,-1.014,-1.0132,-1.0133,-1.0138,-1.0136,-1.0138,-1.0132,-1.0126,-1.0124,-1.011,-1.0116,-1.0099,-1.0107,-1.0095,-1.0096,-1.0092,-1.0093,-1.0093,-1.0074,-1.0106,-1.0154,-1.0159,-1.0093,-1.0093,-1.0092,0,-1.016,-1.0162,-1.0172,-1.017,-1.016,-1.0165,-1.0161,-1.0154,-1.0155,-1.0153,-1.0153,-1.0151,-1.015,-1.015,-1.0136,-1.0124,-1.0147,-1.0128,-1.0143,-1.0144,-1.015,-1.015,-1.02,-1.0148,-1.0148,-1.0147,-1.0147,0,-1.0194,-1.0204,-1.0187,-1.0194,-1.0205,-1.0189,-1.0201,-1.0195,-1.0189,-1.0194,-1.0177,-1.0181,-1.0163,-1.0166,-1.0155,-1.0165,-1.0164,-1.016,-1.0158,-1.0163,-1.0164,-1.0164,-1.0162,-1.0149,-1.0148,-1.0148,-1.0148,0,-1.0234,-1.0223,-1.0233,-1.0223,-1.0221,-1.023,-1.0222,-1.0227,-1.0218,-1.0225,-1.0225,-1.0212,-1.0214,-1.0201,-1.0201,-1.0194,-1.0209,-1.0202,-1.0212,-1.021,-1.0227,-1.0226,-1.028,-1.0287,-1.0229,-1.023,-1.023,0,-1.0257,-1.0265,-1.0257,-1.026,-1.0257,-1.0261,-1.0261,-1.0247,-1.0248,-1.0243,-1.025,-1.0251,-1.0252,-1.0257,-1.0247,-1.0247,-1.0241,-1.026,-1.024,-1.0246,-1.0243,-1.0243,-1.0245,-1.0264,-1.0265,-1.0265,-1.0266,0,-1.03,-1.0295,-1.0297,-1.0298,-1.03,-1.0299,-1.0298,-1.03,-1.0285,-1.0287,-1.0291,-1.0291,-1.0292,-1.0294,-1.0293,-1.0288,-1.0275,-1.0272,-1.0276,-1.0282,-1.0288,-1.0287,-1.0224,-1.0271,-1.027,-1.027,-1.027,-1.0269,-1.0333,-1.034,-1.0336,-1.034,-1.0337,-1.0337,-1.0342,-1.0335,-1.0338,-1.0338,-1.0329,-1.0335,-1.033,-1.0327,-1.0323,-1.0328,-1.0319,-1.0324,-1.0325,-1.0327,-1.0331,-1.0286,-1.0327,-1.0327,-1.0327,-1.0326,-1.0326,0,-1.0377,-1.0373,-1.0377,-1.0376,-1.0379,-1.0367,-1.0365,-1.0369,-1.0374,-1.0371,-1.0373,-1.0377,-1.038,-1.037,-1.0372,-1.0377,-1.0371,-1.0378,-1.0378,-1.0377,-1.0338,-1.0336,-1.0383,-1.0383,-1.0383,-1.0383,-1.0383,-1.0383,-1.04,-1.0411,-1.0406,-1.0416,-1.0413,-1.0419,-1.0419,-1.0419,-1.0417,-1.0423,-1.0426,-1.042,-1.0415,-1.0416,-1.0418,-1.0415,-1.0417,-1.0426,-1.0422,-1.0385,-1.038,-1.0375,-1.0372,-1.0426,-1.0426,-1.0461,-1.0461,-1.0461]}]]